Date String (YYYY-MM-DD hh:mm:ss) UTC,Instrument flags,Ambient pressure (hPa),Sample flow (lpm),Bypass flow (lpm),Sample temperature (°C),Ambient temperature (°C),ASC tube jacket temperature (°C),LED temperature (°C),Box temperature (°C),Sample RH (%),Span deviation,Mass concentration (μg/m³),Mass concentration (μg/m³),Mass concentration (μg/m³)
DateTimeUTC,F1_M11,P_M11,Q1_M11,Q2_M11,T1_M11,T2_M11,T3_M11,T4_M11,T5_M11,U1_M11,ZSPAN_M11,X0_M11,X2_M11,X1_M11
2022-12-17 11:00:00,,0821.2,5.04,0.00,22.1,21.6,00.0,30.9,24.0,03.9,0000.0,0009.19,0004.27,0003.82
2022-12-17 11:01:00,,0821.1,4.95,0.00,22.2,22.2,00.0,30.9,24.2,03.8,0000.0,0009.18,0004.20,0003.75
2022-12-17 11:02:00,,0821.1,5.05,0.00,22.3,21.9,00.0,31.0,24.1,03.8,0000.0,0008.93,0004.09,0003.67
2022-12-17 11:03:00,,0821.1,4.97,0.00,22.2,21.4,00.0,31.0,24.0,03.8,0000.0,0008.75,0003.99,0003.59
2022-12-17 11:04:00,,0821.2,4.99,0.00,22.2,21.0,00.0,31.0,23.9,03.8,0000.0,0008.65,0003.88,0003.50
2022-12-17 11:05:00,,0821.2,5.02,0.00,22.2,20.7,00.0,31.0,23.8,03.8,0000.0,0008.15,0003.76,0003.41
2022-12-17 11:06:00,,0821.3,5.01,0.00,22.1,20.4,00.0,31.0,23.7,03.8,0000.0,0007.85,0003.63,0003.30
2022-12-17 11:07:00,,0821.3,4.97,0.00,22.0,20.3,00.0,31.0,23.7,03.8,0000.0,0007.42,0003.54,0003.21
2022-12-17 11:08:00,,0821.3,5.03,0.00,22.0,20.2,00.0,30.9,23.7,03.9,0000.0,0007.23,0003.51,0003.16
2022-12-17 11:09:00,,0821.3,4.96,0.00,22.0,20.9,00.0,30.9,23.8,03.9,0000.0,0006.33,0003.53,0003.17
2022-12-17 11:10:00,,0821.3,5.05,0.00,22.1,22.0,00.0,30.9,24.1,03.9,0000.0,0006.12,0003.54,0003.17
2022-12-17 11:11:00,,0821.4,4.95,0.00,22.2,22.2,00.0,30.9,24.2,03.8,0000.0,0006.08,0003.55,0003.17
2022-12-17 11:12:00,,0821.4,5.04,0.00,22.3,21.8,00.0,31.0,24.1,03.8,0000.0,0006.84,0003.56,0003.17
2022-12-17 11:13:00,,0821.4,4.97,0.00,22.2,21.5,00.0,31.0,24.1,03.8,0000.0,0007.05,0003.59,0003.19
2022-12-17 11:14:00,,0821.4,5.00,0.00,22.2,21.2,00.0,31.0,24.0,03.9,0000.0,0007.10,0003.60,0003.20
2022-12-17 11:15:00,,0821.3,5.03,0.00,22.2,20.9,00.0,31.0,23.9,03.9,0000.0,0007.80,0003.64,0003.21
2022-12-17 11:16:00,,0821.3,4.97,0.00,22.2,20.7,00.0,31.0,23.9,03.9,0000.0,0007.87,0003.64,0003.22
2022-12-17 11:17:00,,0821.4,5.04,0.00,22.1,20.6,00.0,31.0,23.9,03.9,0000.0,0007.94,0003.64,0003.22
2022-12-17 11:18:00,,0821.4,5.01,0.00,22.1,20.5,00.0,31.0,23.8,03.9,0000.0,0007.97,0003.65,0003.22
2022-12-17 11:19:00,,0821.4,4.98,0.00,22.1,20.5,00.0,31.0,23.8,03.8,0000.0,0007.99,0003.64,0003.22
2022-12-17 11:20:00,,0821.4,5.03,0.00,22.1,20.4,00.0,31.0,23.8,03.7,0000.0,0007.80,0003.57,0003.17
2022-12-17 11:21:00,,0821.4,4.96,0.00,22.0,20.4,00.0,31.0,23.7,03.8,0000.0,0007.73,0003.50,0003.12
2022-12-17 11:22:00,,0821.5,5.03,0.00,22.0,20.7,00.0,30.9,23.8,03.8,0000.0,0007.66,0003.45,0003.06
2022-12-17 11:23:00,,0821.4,4.98,0.00,22.1,21.7,00.0,30.9,24.0,03.9,0000.0,0007.22,0003.41,0003.01
2022-12-17 11:24:00,,0821.4,4.99,0.00,22.2,22.3,00.0,30.9,24.2,04.0,0000.0,0006.83,0003.39,0002.99
2022-12-17 11:25:00,,0821.3,5.02,0.00,22.3,21.9,00.0,31.0,24.2,03.9,0000.0,0006.70,0003.34,0002.93
2022-12-17 11:26:00,,0821.3,5.00,0.00,22.2,21.5,00.0,31.0,24.1,03.8,0000.0,0006.09,0003.30,0002.86
2022-12-17 11:27:00,,0821.2,4.96,0.00,22.2,21.2,00.0,31.0,24.0,03.8,0000.0,0005.27,0003.25,0002.82
2022-12-17 11:28:00,,0821.2,5.04,0.00,22.2,21.0,00.0,31.0,23.9,03.8,0000.0,0005.19,0003.22,0002.77
2022-12-17 11:29:00,,0821.3,4.98,0.00,22.2,20.8,00.0,31.0,23.9,03.8,0000.0,0005.07,0003.19,0002.75
2022-12-17 11:30:00,,0821.3,5.01,0.00,22.2,20.7,00.0,31.0,23.9,03.7,0000.0,0006.18,0003.17,0002.72
2022-12-17 11:31:00,,0821.3,5.01,0.00,22.2,20.7,00.0,31.0,23.9,03.8,0000.0,0006.20,0003.19,0002.71
2022-12-17 11:32:00,,0821.3,4.97,0.00,22.1,20.6,00.0,31.0,23.9,03.8,0000.0,0006.27,0003.21,0002.74
2022-12-17 11:33:00,,0821.4,5.04,0.00,22.1,20.5,00.0,31.0,23.8,03.8,0000.0,0006.22,0003.20,0002.73
2022-12-17 11:34:00,,0821.4,4.95,0.00,22.1,20.5,00.0,31.0,23.8,03.9,0000.0,0006.31,0003.20,0002.72
2022-12-17 11:35:00,,0821.3,5.04,0.00,22.1,20.6,00.0,31.0,23.8,03.9,0000.0,0006.43,0003.20,0002.69
2022-12-17 11:36:00,,0821.4,4.96,0.00,22.1,21.4,00.0,30.9,24.0,03.8,0000.0,0006.59,0003.22,0002.67
2022-12-17 11:37:00,,0821.3,5.03,0.00,22.2,22.2,00.0,30.9,24.2,03.8,0000.0,0006.58,0003.22,0002.68
2022-12-17 11:38:00,,0821.3,4.95,0.00,22.3,22.1,00.0,31.0,24.2,03.8,0000.0,0007.49,0003.24,0002.68
2022-12-17 11:39:00,,0821.4,5.03,0.00,22.3,21.7,00.0,31.0,24.2,03.9,0000.0,0007.43,0003.24,0002.70
2022-12-17 11:40:00,,0821.3,4.97,0.00,22.3,21.4,00.0,31.0,24.1,03.9,0000.0,0007.44,0003.27,0002.74
2022-12-17 11:41:00,,0821.3,5.04,0.00,22.3,21.1,00.0,31.0,24.0,03.8,0000.0,0006.37,0003.27,0002.76
2022-12-17 11:42:00,,0821.3,4.96,0.00,22.2,20.9,00.0,31.0,24.0,03.8,0000.0,0006.30,0003.30,0002.80
2022-12-17 11:43:00,,0821.3,5.05,0.00,22.2,20.8,00.0,31.0,23.9,03.9,0000.0,0006.31,0003.31,0002.84
2022-12-17 11:44:00,,0821.4,4.95,0.00,22.2,20.6,00.0,31.0,23.9,03.9,0000.0,0006.33,0003.34,0002.90
2022-12-17 11:45:00,,0821.4,5.04,0.00,22.1,20.5,00.0,31.0,23.8,03.8,0000.0,0006.19,0003.33,0002.93
2022-12-17 11:46:00,,0821.4,5.02,0.00,22.1,20.4,00.0,31.0,23.8,03.8,0000.0,0006.02,0003.32,0002.94
2022-12-17 11:47:00,,0821.4,4.96,0.00,22.1,20.4,00.0,31.0,23.8,03.8,0000.0,0005.93,0003.33,0002.98
2022-12-17 11:48:00,,0821.4,5.03,0.00,22.1,20.4,00.0,31.0,23.8,03.8,0000.0,0006.05,0003.35,0002.99
2022-12-17 11:49:00,,0821.4,4.96,0.00,22.1,20.5,00.0,31.0,23.8,03.9,0000.0,0004.99,0003.35,0003.03
2022-12-17 11:50:00,,0821.4,5.05,0.00,22.1,21.5,00.0,30.9,24.0,03.9,0000.0,0004.97,0003.38,0003.07
2022-12-17 11:51:00,,0821.5,4.99,0.00,22.2,22.3,00.0,30.9,24.2,03.9,0000.0,0005.03,0003.40,0003.07
2022-12-17 11:52:00,,0821.4,4.98,0.00,22.3,22.1,00.0,31.0,24.2,03.8,0000.0,0005.12,0003.42,0003.07
2022-12-17 11:53:00,,0821.5,5.02,0.00,22.3,21.7,00.0,31.0,24.1,03.8,0000.0,0004.95,0003.40,0003.07
2022-12-17 11:54:00,,0821.4,4.97,0.00,22.3,21.3,00.0,31.0,24.1,03.7,0000.0,0004.84,0003.40,0003.08
2022-12-17 11:55:00,,0821.4,5.04,0.00,22.2,21.1,00.0,31.0,24.0,03.7,0000.0,0005.21,0003.41,0003.06
2022-12-17 11:56:00,,0821.4,4.98,0.00,22.2,20.9,00.0,31.0,23.9,03.7,0000.0,0005.92,0003.43,0003.06
2022-12-17 11:57:00,,0821.4,5.02,0.00,22.2,20.8,00.0,31.0,23.9,03.7,0000.0,0006.21,0003.43,0003.05
2022-12-17 11:58:00,,0821.4,4.99,0.00,22.2,20.6,00.0,31.0,23.9,03.7,0000.0,0006.97,0003.41,0003.04
2022-12-17 11:59:00,,0821.4,5.03,0.00,22.1,20.5,00.0,31.0,23.9,03.7,0000.0,0006.95,0003.39,0003.04
